Location: Blazny
(46.0612°N, 84.4033°W)
Time: 00:45:15
(UTC-04:00)

ARIANE 6 FM1 Upper Stage - Visible Passes

Search period start: 15 September 2024 00:00
Search period end: 25 September 2024 00:00
Orbit: 566 x 594 km, 62.0° (Epoch: 14 September)

Date Brightness Start Highest point End Pass type
(mag) Time Alt. Az. Time Alt. Az. Time Alt. Az.
15 Sep 5.7 04:34:40 10° NNW 04:36:55 14° NNE 04:39:10 10° NE visible
15 Sep 4.0 06:13:09 10° NNW 06:17:21 43° NE 06:21:31 10° ESE visible
16 Sep 5.6 04:39:11 10° NNW 04:42:01 17° NNE 04:44:51 10° ENE visible
16 Sep 3.3 06:17:50 10° NW 06:22:11 63° NE 06:26:31 10° SE visible
17 Sep 6.0 03:05:59 10° N 03:06:05 10° N 03:06:12 10° N visible
17 Sep 5.2 04:43:43 10° NNW 04:47:03 21° NNE 04:50:22 10° E visible
17 Sep 2.7 06:22:33 10° NW 06:26:57 86° SW 06:31:18 10° SE visible
18 Sep 5.9 03:10:50 11° N 03:11:15 11° NNE 03:12:29 10° NNE visible
18 Sep 4.8 04:48:15 10° NNW 04:52:00 27° NE 04:55:44 10° E visible
18 Sep 2.9 06:27:20 10° NW 06:31:37 55° SW 06:35:52 10° SSE visible
18 Sep 5.3 22:10:03 10° SW 22:10:10 11° SW 22:10:10 11° SW visible
19 Sep 5.8 03:16:23 13° NNE 03:16:23 13° NNE 03:18:17 10° NE visible
19 Sep 4.2 04:52:48 10° NNW 04:56:53 36° NE 05:00:56 10° ESE visible
19 Sep 3.4 06:32:14 10° WNW 06:36:13 35° WSW 06:40:11 10° S visible
19 Sep 4.2 20:37:25 10° SSE 20:40:10 17° ESE 20:40:45 16° ESE visible
19 Sep 4.0 22:14:46 10° SW 22:17:12 33° WSW 22:17:12 33° WSW visible
20 Sep 5.7 03:22:27 14° NE 03:22:27 14° NE 03:23:57 10° ENE visible
20 Sep 3.5 04:58:52 20° NNW 05:01:41 52° NE 05:05:57 10° ESE visible
20 Sep 3.9 06:37:18 10° WNW 06:40:44 23° WSW 06:44:08 10° S visible
20 Sep 3.7 20:41:04 10° S 20:44:38 26° ESE 20:47:20 14° ENE visible
20 Sep 3.7 22:19:39 10° WSW 22:23:46 45° NW 22:23:46 45° NW visible
21 Sep 5.8 03:29:05 12° ENE 03:29:05 12° ENE 03:29:29 10° ENE visible
21 Sep 2.8 05:05:32 56° NNW 05:06:24 79° NE 05:10:45 10° SE visible
21 Sep 4.4 06:42:46 10° W 06:45:10 15° WSW 06:47:34 10° SSW visible
21 Sep 3.1 20:45:08 10° SSW 20:49:08 40° ESE 20:53:12 10° NE visible
21 Sep 4.4 22:24:41 10° WSW 22:28:34 32° NW 22:29:42 28° N visible
22 Sep 3.6 05:12:38 37° SSE 05:12:38 37° SSE 05:15:21 10° SSE visible
22 Sep 2.7 20:49:28 10° SSW 20:53:41 65° SE 20:57:59 10° NE visible
22 Sep 4.9 22:29:52 10° W 22:33:24 24° NNW 22:35:06 19° N visible
23 Sep 2.8 20:54:01 10° SW 20:58:18 82° NW 21:02:38 10° NE visible
23 Sep 5.3 22:35:11 10° WNW 22:38:17 19° NNW 22:40:07 15° N visible
24 Sep 3.4 20:58:44 10° WSW 21:02:56 55° NW 21:07:12 10° NE visible
24 Sep 5.5 22:40:38 10° WNW 22:43:11 15° NNW 22:44:53 13° N visible
